FW9022 Weather Reports


Display with metric or nautical units.
time (UTC)temp
F
wind
direction
speed
MPH
gust
MPH
rain 1hr
in
rain 24hr
in
rain mn
in
humidity
%
barometer
mb
20260502194833 58 57 2.0 10.0 0.00 0.00 0.00 42 1011.3
20260502193827 58 360 1.0 9.0 0.00 0.00 0.00 42 1011.5
20260502192845 59 337 3.0 10.0 0.00 0.00 0.00 40 1012.1
20260502191837 60 310 4.0 6.0 0.00 0.00 0.00 39 1012.1
20260502190842 59 355 2.0 10.0 0.00 0.00 0.00 41 1011.6
20260502185819 58 337 3.0 10.0 0.00 0.00 0.00 39 1011.8
20260502184837 58 15 3.0 9.0 0.00 0.00 0.00 40 1011.8
20260502183831 58 19 3.0 6.0 0.00 0.00 0.00 41 1011.8
20260502182826 59 360 2.0 7.0 0.00 0.00 0.00 41 1011.8
20260502181840 58 304 1.0 5.0 0.00 0.00 0.00 42 1011.8
20260502180848 58 307 4.0 12.0 0.00 0.00 0.00 39 1011.9
20260502163826 57 286 2.0 6.0 0.00 0.00 0.00 39 1013.2
20260502162825 57 321 1.0 6.0 0.00 0.00 0.00 46 1013.6
20260502161819 57 19 4.0 7.0 0.00 0.00 0.00 48 1013.6
20260502160843 56 360 5.0 9.0 0.00 0.00 0.00 50 1013.7
20260502151829 53 355 0.0 2.0 0.00 0.00 0.00 59 1014.1
20260502150833 52 360 0.0 4.0 0.00 0.00 0.00 60 1014.0
20260502122824 50 338 1.0 3.0 0.00 0.00 0.00 72 1013.1
20260502121833 50 341 1.0 2.0 0.00 0.00 0.00 74 1013.1
20260502120838 50 342 1.0 3.0 0.00 0.00 0.00 74 1014.0
20260502115838 50 344 0.0 0.0 0.00 0.00 0.00 74 1013.7
20260502114831 50 344 0.0 0.0 0.00 0.00 0.00 75 1013.7
20260502113826 50 344 0.0 0.0 0.00 0.00 0.00 75 1013.7
20260502112824 51 344 0.0 0.0 0.00 0.00 0.00 75 1013.2
20260502111840 51 344 0.0 0.0 0.00 0.00 0.00 74 1013.2
20260502110843 51 344 0.0 0.0 0.00 0.00 0.00 75 1013.1
20260502105827 51 24 0.0 0.0 0.00 0.00 0.00 75 1013.1
20260502104820 51 24 0.0 0.0 0.00 0.00 0.00 74 1013.1
20260502103834 51 24 0.0 2.0 0.00 0.00 0.00 74 1012.9
20260502102829 51 344 0.0 1.0 0.00 0.00 0.00 74 1012.8
20260502100852 52 344 0.0 1.0 0.00 0.00 0.00 74 1012.6
20260502090842 53 348 0.0 2.0 0.00 0.00 0.00 73 1012.7
20260502070855 54 348 0.0 1.0 0.00 0.00 0.00 73 1012.6
20260502065834 54 348 0.0 3.0 0.00 0.00 0.00 72 1012.5
20260502064832 54 360 1.0 3.0 0.00 0.00 0.00 73 1012.5
20260502063826 54 17 0.0 0.0 0.00 0.00 0.00 74 1012.5
20260502062820 55 17 0.0 2.0 0.00 0.00 0.00 74 1012.5
20260502061819 55 17 0.0 1.0 0.00 0.00 0.00 73 1012.5
20260502060842 55 17 0.0 2.0 0.00 0.00 0.00 73 1012.6
20260502055822 55 17 0.0 0.0 0.00 0.00 0.00 72 1012.7
20260502054836 55 17 0.0 0.0 0.00 0.00 0.00 73 1012.7
20260502053835 55 17 0.0 2.0 0.00 0.00 0.00 71 1012.9
20260502052829 55 355 0.0 4.0 0.00 0.00 0.00 72 1013.1
20260502051821 54 292 0.0 2.0 0.00 0.00 0.00 75 1013.1
20260502050846 52 229 0.0 0.0 0.00 0.00 0.00 79 1013.2
20260502045829 52 229 0.0 1.0 0.00 0.00 0.00 79 1013.0
20260502044823 52 229 0.0 3.0 0.00 0.00 0.00 79 1013.0
20260502043817 52 19 0.0 0.0 0.00 0.00 0.00 81 1012.8
20260502042854 52 20 0.0 0.0 0.00 0.00 0.00 79 1012.7
20260502041847 52 20 0.0 0.0 0.00 0.00 0.00 78 1012.7
20260502040831 52 20 0.0 0.0 0.00 0.00 0.00 79 1012.8
20260502035831 52 19 0.0 0.0 0.00 0.00 0.00 78 1012.9
20260502034830 52 19 0.0 0.0 0.00 0.00 0.00 77 1012.9
20260502033825 53 19 0.0 0.0 0.00 0.00 0.00 76 1012.9
20260502032819 53 19 0.0 0.0 0.00 0.00 0.00 76 1013.1
20260502031832 53 20 0.0 0.0 0.00 0.00 0.00 75 1013.1
20260502030841 53 19 0.0 0.0 0.00 0.00 0.00 78 1013.4
20260502025822 54 20 0.0 0.0 0.00 0.00 0.00 74 1013.5
20260502024836 54 20 0.0 0.0 0.00 0.00 0.00 73 1013.5
20260502023835 54 20 0.0 0.0 0.00 0.00 0.00 71 1013.5
20260502022829 54 20 0.0 0.0 0.00 0.00 0.00 70 1013.3
20260502021824 55 19 0.0 0.0 0.00 0.00 0.00 71 1013.3
20260502020908 55 19 0.0 0.0 0.00 0.00 0.00 69 1013.3
20260502015832 55 20 0.0 0.0 0.00 0.00 0.00 66 1013.1
20260502014846 56 20 0.0 0.0 0.00 0.00 0.00 65 1013.1
20260502013819 57 19 0.0 0.0 0.00 0.00 0.00 65 1012.8
20260502012833 57 20 0.0 0.0 0.00 0.00 0.00 60 1012.6
20260502011832 58 19 0.0 0.0 0.00 0.00 0.00 60 1012.6
20260502010836 59 19 0.0 0.0 0.00 0.00 0.00 59 1012.6
20260502005837 60 20 0.0 1.0 0.00 0.00 0.00 55 1012.7
20260502004835 61 19 0.0 1.0 0.00 0.00 0.00 50 1012.7
20260502003851 61 19 0.0 0.0 0.00 0.00 0.00 48 1012.4
20260502002843 62 20 0.0 1.0 0.00 0.00 0.00 45 1012.1
20260502001835 62 20 0.0 3.0 0.00 0.00 0.00 44 1012.1
20260502000844 62 40 0.0 4.0 0.00 0.00 0.00 44 1011.6
20260501235824 62 69 2.0 4.0 0.00 0.00 0.00 46 1011.1
20260501234819 62 90 0.0 2.0 0.00 0.00 0.00 47 1011.1
20260501233834 63 90 0.0 5.0 0.00 0.00 0.00 47 1010.8
20260501232832 63 54 1.0 3.0 0.00 0.00 0.00 48 1010.7
20260501231846 63 96 1.0 5.0 0.00 0.00 0.00 48 1010.7
20260501230849 64 72 1.0 3.0 0.00 0.00 0.00 51 1011.2
20260501225830 64 54 1.0 4.0 0.00 0.00 0.00 57 1010.5
20260501224828 64 180 0.0 2.0 0.00 0.00 0.00 56 1010.5
20260501223823 64 180 0.0 1.0 0.00 0.00 0.00 57 1010.6
20260501222837 65 182 0.0 1.0 0.00 0.00 0.00 56 1010.7
20260501221834 65 169 0.0 3.0 0.00 0.00 0.00 55 1010.7
20260501220839 65 185 0.0 1.0 0.00 0.00 0.00 59 1011.7
20260501215819 65 150 0.0 5.0 0.00 0.00 0.00 55 1011.5
20260501214817 65 115 0.0 6.0 0.00 0.00 0.00 53 1011.5
20260501213852 66 148 4.0 7.0 0.00 0.00 0.00 53 1011.3
20260501212825 65 178 1.0 5.0 0.00 0.00 0.00 53 1011.3
20260501211835 66 155 1.0 5.0 0.00 0.00 0.00 52 1011.3
20260501210840 66 144 1.0 5.0 0.00 0.00 0.00 53 1011.5
20260501205823 66 155 2.0 7.0 0.00 0.00 0.00 52 1011.6
20260501204857 66 171 1.0 7.0 0.00 0.00 0.00 52 1011.6
20260501203831 66 114 2.0 6.0 0.00 0.00 0.00 51 1011.8
20260501202844 67 217 1.0 10.0 0.00 0.00 0.00 51 1011.9
20260501201841 66 195 3.0 6.0 0.00 0.00 0.00 50 1011.9
20260501200845 67 183 3.0 9.0 0.00 0.00 0.00 51 1011.9
20260501195825 66 69 0.0 7.0 0.00 0.00 0.00 53 1012.0